COSMOS 886 DEB, 9652

Orbit data source: Space-Track

COSMOS 886 DEB, 9652 is space debris in LEO originally from a launch on Mon, 27 Dec 1976 UTC launched from the Tyuratam Missile And Space Complex (TTMTR). Debris objects in space refer to the collection of defunct objects orbiting the Earth. Examples of debris include non-operational satellites, rocket bodies, and fragments generated from explosions, collisions, or faulty payload assembly.

Loading next visibility...
Identifier
9652, 1976-126J
Orbit
LEO
Country
Flag of CISCIS
Related business
Manufacturer
Unknown
Mission
Spacecraft
Bus & Motor
Unknown
Mass
Unknown
Launch date (UTC)
1976-12-27 (49 years ago)
Launch vehicle
Unknown
Launch site
Tyuratam Missile And Space Complex (TTMTR)
Object type
Payload
Rocket body
Debris
Shape & HBR
Unknown shape, 0.4 m
Radar Cross Section
Medium (>0.1 m² and <1 m²)

Expand to show TLE details & history
Last TLE update: 17 hours ago

TLE from 17 hours ago
0 COSMOS 886 DEB
1 09652U 76126J   26175.17182160  .00000815  00000-0  45644-3 0  9991
2 09652  65.8289  96.9127 0893905 331.6634  23.8386 12.96710407309779
Epoch: 2026-06-24T04:07Z
TLE epoch observation values (Epoch: 2026-06-24T04:07:25.386Z)
Latitude
-0.00004°
Longitude
122.72405°
Altitude
662.501 km
Speed
7.822 km/s
True Right ascension
06h 27m 39s
True Declination
0° 00' 00"
Sunlit
Object was in daylight at epoch
Visualization orbit readout
Latitude
Unknown
Longitude
Unknown
Altitude
Unknown
Speed
Unknown
Apparent Right ascension
Unknown
Apparent Declination
Unknown
Sunlit
N/A
Visualization observer readout
Local Sidereal Time
08:01:53
Azimuth
Unknown
Elevation
Unknown
Doppler factor
Unknown
Orbital elements
Apogee altitude
1,957.553 km
Perigee altitude
589.574 km
Semi-major axis
7,651.701 km
Eccentricity
0.08939
Inclination
65.8289°
RAAN
96.9127°
Arg. of periapsis
331.6634°
True anomaly
28.44242°
Mean anomaly
23.8386°
Eccentric anomaly
26.09112°
Mean motion
3.2427 °/min
Orbital period
111.02 mins
BSTAR
0.00045644
Loading maneuver chart data...
Computing Atmospheric mass density...

Documentation

Showing up to 5 results
|